Satellite-Ground Cal/Val Region Overpasses Predictions

Prediction of Satellite NPP Overpassing Cal/Val Region: PacNW

Region Location: (Latitude: 10.00, Longitude: 139.50) to (Latitude: 22.70, Longitude: 165.60).

Table of predicted overpasses for the next 14.0 days since TLE Epoch: 11/11/2017
Interval Starting Time Starting Location Ending Time Ending Location
1 11/12/2017 02:15:09 ( 12.38, 165.59) 11/12/2017 02:18:04 ( 22.66, 163.13)
2 11/12/2017 03:55:59 ( 10.04, 140.76) 11/12/2017 03:57:31 ( 15.45, 139.51)
3 11/12/2017 14:46:22 ( 22.67, 163.36) 11/12/2017 14:49:57 ( 10.05, 160.36)
4 11/13/2017 03:36:57 ( 10.02, 145.52) 11/13/2017 03:40:33 ( 22.70, 142.51)
5 11/13/2017 14:30:19 ( 12.13, 165.59) 11/13/2017 14:30:55 ( 10.01, 165.11)
6 11/13/2017 16:08:49 ( 22.68, 142.75) 11/13/2017 16:12:25 ( 10.00, 139.73)
7 11/14/2017 03:17:55 ( 10.05, 150.27) 11/14/2017 03:21:30 ( 22.68, 147.27)
8 11/14/2017 15:49:48 ( 22.65, 147.49) 11/14/2017 15:53:23 ( 10.03, 144.49)
9 11/15/2017 02:58:53 ( 10.03, 155.03) 11/15/2017 03:02:28 ( 22.65, 152.03)
10 11/15/2017 15:30:45 ( 22.67, 152.26) 11/15/2017 15:34:20 ( 10.05, 149.26)
11 11/16/2017 02:39:50 ( 10.01, 159.79) 11/16/2017 02:43:26 ( 22.69, 156.78)
12 11/16/2017 15:11:43 ( 22.69, 157.02) 11/16/2017 15:15:19 ( 10.01, 154.01)
13 11/17/2017 02:20:49 ( 10.05, 164.54) 11/17/2017 02:24:24 ( 22.67, 161.54)
14 11/17/2017 14:52:42 ( 22.66, 161.77) 11/17/2017 14:56:17 ( 10.03, 158.77)
15 11/18/2017 03:43:16 ( 10.03, 143.93) 11/18/2017 03:46:51 ( 22.66, 140.93)
16 11/18/2017 14:34:44 ( 18.86, 165.59) 11/18/2017 14:37:14 ( 10.06, 163.53)
17 11/18/2017 16:15:09 ( 22.67, 141.15) 11/18/2017 16:17:05 ( 15.86, 139.50)
18 11/19/2017 03:24:14 ( 10.01, 148.69) 11/19/2017 03:27:50 ( 22.69, 145.67)
19 11/19/2017 15:56:07 ( 22.69, 145.91) 11/19/2017 15:59:43 ( 10.01, 142.90)
20 11/20/2017 03:05:12 ( 10.05, 153.44) 11/20/2017 03:08:47 ( 22.68, 150.44)
21 11/20/2017 15:37:05 ( 22.65, 150.66) 11/20/2017 15:40:40 ( 10.03, 147.66)
22 11/21/2017 02:46:10 ( 10.03, 158.20) 11/21/2017 02:49:45 ( 22.66, 155.20)
23 11/21/2017 15:18:03 ( 22.67, 155.42) 11/21/2017 15:21:38 ( 10.05, 152.43)
24 11/22/2017 02:27:07 ( 10.01, 162.96) 11/22/2017 02:30:43 ( 22.70, 159.95)
25 11/22/2017 14:59:00 ( 22.69, 160.19) 11/22/2017 15:02:36 ( 10.01, 157.17)
26 11/23/2017 02:10:40 ( 19.10, 165.59) 11/23/2017 02:11:41 ( 22.68, 164.71)
27 11/23/2017 03:49:35 ( 10.00, 142.34) 11/23/2017 03:52:59 ( 21.98, 139.51)
28 11/23/2017 14:39:59 ( 22.65, 164.93) 11/23/2017 14:43:34 ( 10.03, 161.93)
29 11/23/2017 16:21:28 ( 22.70, 139.57) 11/23/2017 16:21:32 ( 22.47, 139.51)
30 11/24/2017 03:30:33 ( 10.05, 147.09) 11/24/2017 03:34:08 ( 22.67, 144.09)
31 11/24/2017 16:02:26 ( 22.66, 144.32) 11/24/2017 16:06:01 ( 10.04, 141.32)
32 11/25/2017 03:11:31 ( 10.03, 151.85) 11/25/2017 03:15:06 ( 22.65, 148.85)


NCC Satellite Cal/Val Overpasses Prediction Service
